Погода Усть-Уса

Погода Усть-Уса : погода сейчас, прогноз погоды и архив. Всё, что Вы хотите узнать о погоде Усть-Уса!

Хотите узнать прогноз погоды Усть-Уса? Тогда Вам сюда: Погода Усть-Уса

Поиск расширенной информации на нашем сайте:

Полезная информация: Брошюровочные машины выбрать и купить, продажа. Брошюровочная машина в каталоге.

Другие новости

Новости СМИ2

Главная страница сайта

Новости сайта

02.10.2013

Напоминаем, что на нашем новом сайте вы можете получить высокодетализированные прогнозы погоды по пунктам России, СНГ и мира (включающие важные для авиации метеовеличины, такие как направление и скорость ветра, видимость, явления погоды, количество и форма облачности, нижняя и верхняя граница облачности), а также ознакомиться с разнообразными материалами по авиационной метеорологии и подборкой полезных ссылок на эту тему.

Сайт Метеоцентр.Азия посвящён разработке технологий оптимизации авиаметеорологического обслуживания, включая проектирование и перспективное создание нескольких автоматизированных авиаметеорологических систем:
- система выпуска высокодетальных прогностических карт явлений погоды для нижнего воздушного пространства по России и ближнему зарубежью;
- система верификации прогнозов TAF (выпускаемых синоптиками официальных АМСГ РФ и ближнего зарубежья) и AUTOTAF (выпускаемых сайтом Метеоцентр.Азия) - выявление ошибок, онлайн-сопоставление с фактической погодой METAR, автоматическое внесение коррективов в прогнозы при резком отклонении фактической погоды от прогноза, подсчёт оправдываемости прогнозов по элементам и в целом;
- система обработки, анализа и отображения авиаметеорологической информации для применения провайдерами метеорологической информации.

Рекомендуем: Актуальная информация дорнит ростов тут.

Погода Усть-Уса - сегодня

Время (UTC), дата Ветер
(°,м/с) 
Видим.   Явления Облачность Т
(°С)
Тd
(°С)
f(%) Тe
(°С)
Pmin
(гПа)
dP
(гПа)
Po
(мм)
O2
(г/м3)
Тmin Tmax R s Состояние
почвы
12 25.05.17 290 (З) 4{11}  20000 м  {ливн. осадки}  4/3 300 м кучево-дожд., средняя 
[Cb calv|Ac trans]
+3.1 -5.9 52 +1  1013  1.2  753  300           
15 25.05.17 300 (СЗ) 20000 м    5/1 1000 м средняя, верхняя 
[Sc|Ac trans|Ci fib]
+3.7 -5.3 52 +2  1013.3  0.3  753  300    +4.1  0.0     
18 25.05.17 250 (З) 20000 м    3/0 средняя 
[Ac trans]
+1.8 -4.1 65 +3  1012.8  -0.5  752  302           
21 25.05.17 110 (В) 20000 м    10/10 1000 м 
[Sc]
+0.7 -3.6 73 -1  1011.6  -1.2  752  302           
00 26.05.17 110 (В) 20000 м    10/0 средняя 
[Ac As]
+1.5 -4.6 64 1009.3  -2.3  750  301           
03 26.05.17 120 (ЮВ) 20000 м  в посл. час дождь  10/5 1000 м средняя 
[Sc|Ac und]
+3.1 -3.1 64 +1  1006.8  -2.4  748  298  +0.7    0.3  32  мокрый или
старый снег
50-90% 
06 26.05.17 120 (ЮВ) 20000 м  {дождь}  10/6 1000 м средняя 
[Sc|Ac und]
+5.2 -3.3 54 +4  1004.1  -2.6  746  295           
09 26.05.17 150 (ЮВ) 20000 м    9/0 средняя 
[Ac trans]
+8.8 -3.1 43 +8  1001.3  -2.7  744  291           
12 26.05.17 160 (Ю) 20000 м  слаб. дождь  10/0 средняя 
[Ac As]
+5.7 +1.8 76 +5  1001.5  0.1  744  293           
18 26.05.17 150 (ЮВ) 20000 м  {дождь}  4/1 1000 м средняя, верхняя 
[Sc|Ac trans|Ci sp]
+3.4 +1.1 85 +4  1000.4  743  296           
21 26.05.17 220 (ЮЗ) 20000 м    8/4 1000 м средняя 
[Sc|Ac trans]
+2.2 +0.9 91 +2  1000.9  0.4  744  297           
03 27.05.17 170 (Ю) 10 км  слаб. дождь  10/10 200 м 
[Frnb|Ns]
+2.2 +1.6 96 +3  1000.2  -0.4  743  297  +2.1    26  мокрый или
старый снег
50-90% 
15 27.05.17 310 (СЗ) 6-10{12}  20000 м  {снег}  10/10 300 м кучево-дожд. 
[Cb calv]
-1.7 -5.2 77 -5  1004.7  1.6  746  303    +2.2  11     
18 27.05.17 300 (СЗ) 5{11}  20000 м  {снег}  10/10 300 м кучево-дожд. 
[Cb calv]
-2.8 -6.1 78 -6  1005.9  1.1  747  305           
21 27.05.17 300 (СЗ) 4{10}  20000 м    10/10 1000 м 
[Sc]
-3.4 -7 76 -6  1006.2  0.2  747  306           
00 28.05.17 290 (З) 20000 м    10/10 1000 м 
[Sc]
-4.1 -7.3 78 -7  1006.4  0.6  747  307           
03 28.05.17 290 (З) 20000 м  слаб. ливневой снег  10/10 300 м кучево-дожд. 
[Cb calv]
-3.9 -7.3 77 -6  1006.6  0.2  748  306  -4.2    0.0  32  равномерный
сухой снег
100% 
06 28.05.17 270 (З) 20000 м  слаб. ливневой снег  10/10 300 м кучево-дожд. 
[Cb calv]
-2 -6.6 71 -4  1006.4  -0.1  748  304           
09 28.05.17 270 (З) 20000 м  {ливн. осадки}  9/4 300 м кучево-дожд., средняя 
[Cb calv|Ac trans]
+0.7 -5.5 63 -2  1006.3  748  301           
18 28.05.17 280 (З) 20000 м    3/3 1000 м 
[Sc]
-0.5 -5.9 67 -3  1007.1  748  303           
21 28.05.17 250 (З) 20000 м    1/1 1000 м 
[Sc]
-2.6 -6.2 76 -5  1007.7  0.5  748  305           
00 29.05.17 250 (З) 20000 м    9/0 средняя 
[Ac trans]
-2.8 -5.6 81 -4  1008  0.3  749  305           
03 29.05.17 280 (З) 20000 м    9/0 средняя 
[Ac trans]
-0.4 -4.7 73 -1  1007.4  -0.5  748  302  -3      30  мокрый или
старый снег
50-90% 
06 29.05.17 280 (З) 20000 м    9/9 300 м кучево-дожд. 
[Cb calv]
+0.9 -6.4 58 -1  1007.2  -0.1  748  301           
09 29.05.17 250 (З) 20000 м  в посл. час ливневой снег  10/10 300 м кучево-дожд. 
[Cb calv]
+2.2 -7 51 +2  1007.3  0.1  748  300           
Время (UTC), дата Ветер
(°,м/с) 
Видим.   Явления Облачность Т
(°С)
Тd
(°С)
f(%) Тe
(°С)
Pmin
(гПа)
dP
(гПа)
Po
(мм)
O2
(г/м3)
Тmin Tmax R s Состояние
почвы

Для получения пояснительной информации подведите курсор к названию столбца.

ПОГОДА Усть-Уса - архив

Всё, что Вы хотите узнать о погоде Усть-Уса - удобно и подробно!

Выберите нужную дату (начиная с 1 января 2015* года) и нажмите кнопку "Найти".
Будут отображены архивные сводки погоды по пункту Усть-Уса, начиная с указанной даты.


Отображать данные в формате CSV (для использования в таблицах Excel)


Внимание! Наш архив погоды предназначен исключительно для личного некоммерческого использования в познавательных целях. Если Вам необходимы официальные справки о состоянии погоды (для производственных, юридических, коммерческих и т.п. целей), обращайтесь в органы Росгидромета.

*Примечание: данная дата относится к архиву по метеостанциям СССР (Россия, СНГ, Балтия).
Архив по метеостанциям Зарубежной Европы и Азии (кроме Китая) хранится 10 дней, по другим регионам земного шара (Китай, Африка, Америка, Австралия, Океания) - 1 день.

Усть-Уса - район местоположения метеостанции


Название, широта, долгота, высота метеостанции:
Усть-Уса 66°ш. 56.9°д. 78 м над ур. моря [Российская Федерация]

Дополнительная информация

В oтличие oт бoльшинства пoгoдных сайтoв мы публикуем пoдрoбную метеoинфoрмацию в детальнoм прoфессиoнальнoм фoрмате.

Характеристики температуры и влажнoсти вoздуха измеряются на высoте 2 м в тени вдали oт зданий и деревьев.
Скoрoсть ветра измеряется на высoте 10 м (на урoвне рoста челoвека скoрoсть ветра ниже в 1.5-2 раза). Если метеoстанция нахoдится в гoрoде или в лесу, тo скoрoсть ветра занижена на 2-4 м/с пo сравнению с oткрытым местoм. Скoрoсть ветра над акватoриями крупных рек и oзёр, а также на вершинах хoлмoв на 2-5 м/с выше, чем в oбычных услoвиях.
Атмoсфернoе давление в разных тoчках местнoсти мoжет значительнo oтличаться oт давления на метеoстанции, в зависимoсти oт услoвий рельефа (при пoдъёме на 10 м давление пoнижается примернo на 1 мм рт.ст.).